Location: Newark
(46.7000°N, 60.6000°W)
Time: 04:35:19
(UTC+00:00)

A-11 Canister half - Pass Details

Date: 30 October 2020
Orbit: 1525 x 1683 km, 47.3° (Epoch: 23 November)

Event Time Altitude Azimuth Distance (km) Brightness Sun altitude
Rises 15:24:51 0° 179° (S) 4,828 12.8 29.0°
Reaches altitude 10° 15:29:37 10° 159° (SSE) 3,815 12.5 29.1°
Maximum altitude 15:34:51 16° 126° (SE) 3,323 11.5 29.2°
Drops below altitude 10° 15:39:59 10° 92° (E) 3,757 11.2 29.2°
Sets 15:44:35 0° 73° (ENE) 4,719 11.4 29.2°
